Wind_Speed
30 31 32 33 32 33 34 34 34 35 35 35 35 36 36 36 35 36 36 36 37 38 39 39 40 40 41 42 43 43 43 44 44 44 45 44 44 44
29 30 32 33 33 33 32 33 33 33 34 34 35 35 35 35 35 36 36 37 37 38 39 39 40 40 41 42 42 42 42 41 41 41 41 41 40 40
28 28 30 31 32 32 33 33 32 33 33 34 35 35 35 34 35 36 36 37 38 39 39 39 39 40 40 40 40 39 39 39 39 38 37 37 37 36
28 28 29 30 30 31 32 32 32 33 33 33 33 34 34 35 35 36 37 38 39 38 38 38 38 38 38 38 38 37 37 36 35 34 34 34 33 33
28 28 29 29 30 31 31 31 31 31 32 33 33 33 34 34 35 36 37 38 37 37 37 37 36 36 36 36 35 34 33 32 31 31 31 30 29 29
28 29 29 30 29 29 29 30 30 31 32 32 32 33 33 34 36 36 37 36 35 35 34 34 34 34 33 33 32 30 30 29 28 27 26 25 25 26
27 27 28 29 28 29 29 30 30 31 30 30 31 32 33 34 34 35 34 34 33 32 32 32 32 31 30 29 28 27 26 25 24 24 23 23 23 23
25 26 27 27 27 28 28 29 29 29 30 30 31 31 32 32 32 32 32 31 31 30 30 29 29 28 27 26 25 23 23 22 22 21 20 21 21 21
24 24 24 24 25 26 26 28 28 28 29 29 29 30 30 30 30 30 30 29 28 28 27 27 26 25 23 22 21 20 20 19 18 18 18 18 19 19
21 21 22 22 23 24 25 25 26 27 28 28 28 28 27 28 27 27 26 26 25 25 24 24 23 21 20 19 18 18 17 16 16 16 16 17 18 19
19 20 21 21 21 22 23 24 24 25 26 26 25 25 25 25 25 24 24 23 23 22 22 20 19 18 17 16 16 15 15 14 14 14 15 16 17 18
17 18 19 20 20 20 21 22 22 22 23 23 23 23 23 23 23 22 22 21 20 19 17 16 15 15 15 14 13 13 12 12 12 13 14 15 16 17
15 15 16 17 18 19 19 20 21 20 20 20 20 21 20 20 20 19 19 17 16 15 14 13 13 12 12 11 11 10 10 10 11 12 13 15 15 16
12 13 14 15 16 17 18 18 18 18 18 18 18 18 17 17 16 16 15 14 13 12 11 11 10 9 9 8 8 8 8 9 10 11 13 14 14 15
11 12 13 13 14 14 14 15 15 15 15 15 15 15 15 14 14 13 12 11 10 10 9 8 7 7 6 6 7 7 7 8 10 11 12 13 14 15
9 9 10 10 10 10 11 11 11 11 12 12 12 12 12 11 10 9 8 8 7 7 7 6 6 5 5 5 6 6 7 8 9 11 11 12 13 15
6 7 7 7 8 8 9 9 9 9 9 10 9 9 8 7 6 6 6 5 5 5 5 4 4 4 4 4 5 6 7 8 10 11 11 12 13 15
5 6 6 6 7 7 7 7 7 7 7 7 6 6 5 4 4 4 4 3 3 3 3 3 3 3 3 4 5 6 7 9 10 11 11 12 14 15
7 7 7 8 7 7 7 7 7 6 5 5 4 4 4 3 3 2 2 2 2 1 1 1 1 2 3 4 5 6 8 9 10 11 12 13 14 16
9 9 9 9 9 9 8 7 7 6 5 4 4 4 4 3 3 3 2 2 2 1 1 1 2 3 4 5 6 7 8 10 11 11 12 13 15 16
10 10 10 10 10 9 9 8 8 7 6 5 5 5 4 4 4 3 3 3 2 2 2 2 3 4 5 6 7 8 9 10 11 12 13 14 15 17
11 12 11 11 11 10 10 9 8 8 7 6 6 6 5 5 5 4 4 3 3 3 3 4 4 5 6 8 9 10 11 12 13 14 14 15 16 17
13 13 13 12 12 11 11 10 9 9 9 8 7 7 6 6 5 5 4 4 4 4 5 5 6 8 9 10 11 12 13 14 15 15 16 16 17 17
Wind_Direction
253 252 251 251 253 254 256 260 262 264 264 265 266 268 269 270 273 276 277 279 280 280 281 283 284 286 286 288 288 288 289 290 290 291 291 291 291 291
254 251 250 251 252 253 256 260 261 262 263 264 265 267 270 272 274 276 277 279 280 282 284 285 286 287 287 289 289 290 291 292 292 293 293 293 294 295
252 251 250 249 251 254 257 259 262 262 262 264 266 269 272 273 275 277 278 279 281 284 286 286 287 288 289 290 292 292 293 294 294 294 295 296 297 297
251 252 253 253 254 256 259 260 261 262 265 266 269 271 272 275 276 278 280 282 285 286 287 288 289 290 290 292 293 293 294 294 295 296 297 297 298 299
253 254 255 256 256 258 260 262 263 264 265 267 268 271 273 275 277 279 282 284 285 286 287 288 289 290 291 292 293 293 294 296 297 298 299 300 302 303
256 256 256 256 256 259 261 263 264 265 267 268 270 272 274 276 278 281 283 284 286 287 288 289 290 291 292 293 293 294 295 297 298 301 302 304 305 307
256 257 257 256 257 259 261 263 265 268 270 271 273 275 276 278 280 282 283 284 286 287 288 289 291 292 292 292 293 294 296 297 300 302 305 307 309 311
258 258 259 260 259 260 262 264 266 269 271 273 275 277 278 279 281 282 283 284 286 287 289 289 290 291 291 292 294 295 297 299 302 304 307 310 312 314
257 258 259 260 261 262 265 267 270 271 273 275 276 278 279 280 282 283 283 285 286 287 288 289 290 290 290 292 294 297 298 301 304 307 310 312 315 318
257 259 262 264 267 269 271 272 273 274 275 276 277 278 280 281 282 284 285 286 287 288 288 289 289 288 289 291 293 296 299 304 308 311 313 316 319 322
262 265 268 269 270 271 272 273 275 277 278 279 279 280 281 282 283 284 285 286 287 286 287 287 288 289 289 290 293 297 301 306 310 315 318 321 324 327
269 271 272 272 273 274 276 278 279 280 282 282 282 283 283 283 284 284 285 285 285 287 287 287 287 288 288 291 293 297 302 307 314 319 323 328 331 333
274 275 275 276 278 279 280 282 282 282 283 284 285 285 285 284 285 285 285 285 286 286 286 285 287 288 288 290 294 298 303 312 320 325 330 334 337 338
281 281 282 283 284 286 286 286 285 284 285 286 286 286 286 287 287 285 284 284 283 283 282 282 285 285 286 289 294 301 310 319 326 331 335 339 341 343
288 288 289 289 289 289 289 289 289 289 290 290 291 290 289 288 287 285 284 283 282 281 279 278 279 280 285 290 299 307 317 326 331 335 338 341 343 346
296 297 299 299 299 298 298 298 298 297 296 295 294 293 291 289 286 287 286 284 283 280 276 274 274 279 285 294 305 315 324 331 336 338 340 342 345 348
324 322 318 316 314 312 310 308 307 304 302 301 298 296 296 296 295 294 291 289 284 279 273 271 271 276 286 301 314 323 330 335 337 339 341 343 347 349
1 354 348 341 336 333 330 326 322 319 318 318 318 316 315 312 309 307 303 295 286 280 280 275 273 281 299 314 323 329 333 337 338 340 342 344 346 347
24 17 11 6 360 355 350 346 344 344 347 352 357 358 356 350 346 343 339 331 319 307 298 293 296 315 323 328 332 333 335 337 338 340 341 342 343 345
28 22 18 14 11 9 8 10 13 17 21 26 26 25 25 25 23 22 19 12 10 8 353 343 339 338 337 335 334 334 335 337 338 338 338 339 341 343
32 28 25 22 21 21 23 26 30 32 34 35 34 34 34 33 30 24 19 18 18 13 3 355 349 341 337 334 334 333 334 334 334 334 334 335 338 340
36 34 32 31 29 30 32 35 38 39 41 42 41 39 36 32 27 22 18 15 11 3 355 346 341 337 334 333 333 332 331 331 331 331 332 333 335 337
41 39 38 37 37 38 40 43 44 45 46 44 41 38 35 32 29 23 17 11 3 352 343 338 335 334 332 330 329 328 328 327 327 328 329 330 332 334
Height
5780 5782 5783 5785 5787 5788 5789 5790 5790 5790 5790 5789 5789 5788 5788 5788 5787 5786 5785 5784 5783 5781 5779 5777 5775 5772 5770 5767 5764 5760 5757 5753 5750 5746 5742 5738 5734 5730
5772 5773 5775 5777 5779 5780 5781 5781 5782 5782 5781 5781 5780 5780 5779 5779 5778 5777 5776 5775 5773 5771 5769 5767 5764 5762 5759 5756 5753 5750 5746 5743 5739 5735 5732 5728 5724 5720
5765 5766 5767 5769 5770 5772 5772 5773 5773 5773 5773 5772 5772 5771 5771 5770 5769 5768 5767 5765 5763 5761 5759 5757 5755 5752 5749 5746 5743 5740 5737 5733 5730 5726 5722 5719 5715 5711
5757 5758 5760 5761 5762 5763 5764 5764 5764 5764 5764 5764 5763 5763 5762 5761 5760 5759 5757 5756 5754 5752 5750 5747 5745 5742 5740 5737 5734 5731 5727 5724 5721 5717 5714 5710 5706 5703
5749 5750 5752 5753 5754 5755 5756 5756 5756 5756 5756 5755 5755 5754 5753 5753 5751 5750 5748 5746 5745 5743 5740 5738 5736 5733 5731 5728 5725 5722 5719 5716 5713 5709 5706 5702 5699 5695
5741 5742 5744 5745 5746 5747 5748 5748 5748 5748 5747 5747 5746 5746 5745 5744 5742 5741 5739 5737 5735 5733 5731 5729 5727 5725 5722 5719 5717 5714 5711 5708 5705 5702 5699 5696 5692 5689
5734 5735 5736 5737 5738 5739 5739 5740 5739 5739 5739 5738 5738 5737 5736 5735 5734 5732 5730 5728 5727 5725 5723 5721 5719 5716 5714 5711 5709 5707 5704 5702 5699 5696 5693 5690 5687 5683
5727 5728 5729 5730 5730 5731 5731 5731 5731 5731 5731 5731 5730 5729 5728 5726 5725 5723 5722 5720 5719 5717 5715 5713 5711 5709 5707 5704 5702 5700 5698 5696 5693 5691 5688 5685 5682 5678
5720 5721 5722 5723 5723 5724 5724 5724 5723 5723 5723 5723 5722 5721 5719 5718 5717 5716 5714 5712 5711 5709 5707 5705 5704 5702 5700 5698 5696 5695 5693 5691 5688 5686 5683 5680 5677 5674
5714 5715 5715 5716 5716 5716 5717 5716 5716 5716 5715 5715 5714 5713 5712 5710 5709 5708 5707 5705 5704 5702 5700 5699 5697 5696 5694 5693 5691 5690 5688 5686 5684 5682 5679 5676 5673 5670
5708 5709 5709 5709 5710 5710 5710 5710 5709 5708 5707 5707 5706 5705 5704 5703 5702 5701 5700 5698 5697 5696 5694 5693 5691 5690 5689 5688 5687 5685 5684 5682 5680 5678 5675 5672 5669 5666
5703 5703 5704 5704 5704 5704 5704 5703 5702 5702 5701 5700 5699 5698 5697 5696 5695 5694 5693 5692 5691 5690 5688 5688 5687 5686 5685 5684 5683 5682 5680 5679 5677 5674 5672 5669 5666 5663
5698 5698 5699 5699 5698 5698 5698 5697 5696 5696 5695 5694 5693 5692 5691 5690 5689 5688 5687 5687 5686 5685 5684 5684 5683 5682 5681 5680 5680 5679 5677 5676 5674 5671 5669 5666 5663 5660
5695 5695 5695 5694 5694 5693 5693 5692 5691 5691 5690 5689 5688 5687 5686 5685 5684 5683 5682 5682 5681 5681 5680 5680 5679 5679 5678 5677 5677 5676 5675 5673 5671 5669 5666 5664 5661 5658
5692 5692 5692 5691 5690 5690 5689 5688 5687 5686 5685 5684 5683 5682 5682 5681 5680 5679 5678 5678 5677 5677 5677 5677 5677 5676 5676 5675 5674 5673 5672 5671 5669 5666 5664 5661 5659 5655
5690 5689 5689 5688 5687 5686 5686 5685 5684 5683 5682 5680 5679 5679 5678 5677 5677 5676 5675 5675 5675 5675 5674 5674 5674 5674 5674 5673 5672 5671 5670 5668 5667 5664 5662 5659 5656 5653
5688 5688 5687 5686 5685 5684 5683 5682 5681 5680 5679 5678 5677 5676 5675 5675 5674 5674 5673 5673 5672 5672 5672 5672 5672 5672 5672 5671 5670 5669 5668 5666 5665 5662 5660 5657 5654 5651
5688 5687 5686 5685 5684 5683 5681 5680 5679 5678 5677 5676 5675 5674 5673 5673 5672 5672 5672 5671 5671 5671 5671 5671 5671 5670 5670 5670 5669 5668 5666 5664 5662 5660 5658 5655 5652 5649
5688 5687 5686 5685 5683 5682 5681 5679 5678 5677 5676 5675 5674 5673 5672 5672 5672 5671 5671 5671 5670 5670 5670 5670 5669 5669 5669 5668 5667 5666 5664 5662 5660 5658 5656 5653 5650 5647
5689 5688 5686 5685 5683 5682 5680 5679 5677 5676 5675 5675 5674 5673 5673 5672 5672 5671 5671 5670 5670 5670 5669 5669 5669 5668 5667 5667 5666 5664 5662 5660 5658 5656 5654 5651 5648 5645
5690 5689 5687 5686 5684 5682 5681 5679 5678 5677 5676 5675 5674 5674 5673 5673 5672 5672 5671 5671 5670 5670 5669 5669 5668 5667 5666 5665 5664 5662 5660 5658 5656 5654 5651 5648 5645 5642
5692 5690 5688 5687 5685 5683 5682 5680 5679 5678 5677 5676 5675 5675 5674 5673 5673 5672 5671 5671 5670 5669 5669 5668 5667 5666 5665 5663 5662 5660 5658 5656 5653 5651 5648 5646 5642 5639
5693 5692 5690 5688 5687 5685 5683 5682 5680 5679 5678 5678 5677 5676 5675 5674 5673 5673 5672 5671 5670 5669 5669 5667 5666 5665 5663 5662 5660 5658 5655 5653 5650 5648 5645 5642 5639 5636